Cardiff-Wales, United Kingdom

4:09 PM GMT on February 06, 2016 (GMT +0000)
Cardiff

Weather History for EGFF - December, 2012

Change the Weather History Date:

Sunday, December 23, 2012

  Actual Average Record
Temperature  
Mean Temperature 50 °F -  
Max Temperature 55 °F 44 °F - (-1)
Min Temperature 46 °F 36 °F - (-1)
Degree Days  
Heating Degree Days 14    
Moisture  
Dew Point 47 °F    
Average Humidity 91    
Maximum Humidity 94    
Minimum Humidity 82    
Precipitation  
Precipitation 0.00 in 0.12 in - ()
Sea Level Pressure  
Sea Level Pressure 29.62 in    
Wind  
Wind Speed 14 mph ()    
Max Wind Speed 21 mph    
Max Gust Speed 26 mph    
Visibility 5.8 miles    
Events Rain    
Averages and records for this station are not official NWS values.
T = Trace of Precipitation, MM = Missing Value Source: Averaged Metar Reports

Daily Weather History Graph

Daily Weather History Graph

Search for Another Location

Airport or City:

Trip Planner

Search our weather history database for the weather conditions in past years. The results will help you decide how hot, cold, wet, or windy it might be!

Date:

Astronomy

Dec. 23, 2012 Rise Set
Actual Time 8:17 AM GMT 4:08 PM GMT
Civil Twilight 7:37 AM GMT 4:48 PM GMT
Nautical Twilight 6:53 AM GMT 5:31 PM GMT
Astronomical Twilight 6:13 AM GMT 6:12 PM GMT
Moon 1:05 PM GMT (12/23) 3:28 AM GMT (12/23)
Length of Visible Light 9h 11m
Length of Day
7h 51m
Waxing Gibbous, 80% of the Moon is Illuminated
Dec 23
Waxing Gibbous
Dec 28
Full
Jan 5
Last Quarter
Jan 11
New
Jan 18
First Quarter

Hourly Weather History & Observations

Time (GMT) Temp. Windchill Dew Point Humidity Pressure Visibility Wind Dir Wind Speed Gust Speed Precip Events Conditions
12:20 AM 55.4 °F - 53.6 °F 94% 29.50 in 6.2 mi WSW 16.1 mph - N/A   Light Drizzle
12:50 AM 55.4 °F - 53.6 °F 94% 29.50 in 6.2 mi WSW 18.4 mph - N/A Rain Rain
1:20 AM 55.4 °F - 53.6 °F 94% 29.50 in 6.2 mi WSW 16.1 mph - N/A Rain Rain
1:50 AM 55.4 °F - 51.8 °F 88% 29.50 in 6.2 mi WSW 17.3 mph - N/A Rain Light Rain
2:20 AM 53.6 °F - 51.8 °F 94% 29.53 in 6.2 mi WSW 18.4 mph - N/A   Mostly Cloudy
2:50 AM 53.6 °F - 50.0 °F 88% 29.53 in 6.2 mi West 16.1 mph - N/A   Mostly Cloudy
3:20 AM 53.6 °F - 50.0 °F 88% 29.53 in 6.2 mi WSW 17.3 mph - N/A   Mostly Cloudy
3:50 AM 53.6 °F - 50.0 °F 88% 29.53 in 5.6 mi West 15.0 mph - N/A   Partly Cloudy
4:20 AM 53.6 °F - 48.2 °F 82% 29.53 in 6.2 mi WSW 17.3 mph - N/A   Mostly Cloudy
4:50 AM 51.8 °F - 48.2 °F 88% 29.53 in 5.6 mi West 20.7 mph - N/A   Overcast
5:20 AM 51.8 °F - 48.2 °F 88% 29.56 in 5.6 mi WSW 17.3 mph - N/A   Mostly Cloudy
5:50 AM 51.8 °F - 48.2 °F 88% 29.53 in 5.6 mi WSW 20.7 mph - N/A   Mostly Cloudy
6:20 AM 51.8 °F - 48.2 °F 88% 29.56 in 5.6 mi West 19.6 mph - N/A   Mostly Cloudy
6:50 AM 50.0 °F - 48.2 °F 94% 29.56 in 6.2 mi West 17.3 mph - N/A   Mostly Cloudy
7:20 AM 50.0 °F - 46.4 °F 87% 29.56 in 6.2 mi West 18.4 mph - N/A   Mostly Cloudy
7:50 AM 50.0 °F - 46.4 °F 87% 29.59 in 6.2 mi West 18.4 mph - N/A   Mostly Cloudy
8:20 AM 50.0 °F - 46.4 °F 87% 29.59 in 4.3 mi West 17.3 mph - N/A   Mostly Cloudy
8:50 AM 50.0 °F - 46.4 °F 87% 29.59 in 3.7 mi West 17.3 mph - N/A Rain Light Rain Showers
9:20 AM 50.0 °F - 48.2 °F 94% 29.62 in 4.3 mi West 18.4 mph - N/A   Scattered Clouds
9:50 AM 50.0 °F - 48.2 °F 94% 29.62 in 4.3 mi West 17.3 mph - N/A   Mostly Cloudy
10:20 AM 50.0 °F - 48.2 °F 94% 29.65 in 4.3 mi West 15.0 mph - N/A   Mostly Cloudy
10:50 AM 50.0 °F - 48.2 °F 94% 29.65 in 4.3 mi West 15.0 mph - N/A   Scattered Clouds
11:20 AM 50.0 °F - 48.2 °F 94% 29.65 in 6.2 mi West 13.8 mph - N/A   Scattered Clouds
11:50 AM 50.0 °F - 48.2 °F 94% 29.68 in 6.2 mi West 12.7 mph - N/A   Mostly Cloudy
12:20 PM 48.2 °F - 46.4 °F 93% 29.65 in 6.2 mi West 13.8 mph - N/A   Mostly Cloudy
12:50 PM 48.2 °F - 46.4 °F 93% 29.65 in 6.2 mi West 15.0 mph 26.5 mph N/A   Scattered Clouds
1:20 PM 50.0 °F - 48.2 °F 94% 29.65 in 6.2 mi West 17.3 mph - N/A   Scattered Clouds
1:50 PM 50.0 °F - 48.2 °F 94% 29.65 in 6.2 mi West 16.1 mph - N/A   Scattered Clouds
2:20 PM 50.0 °F - 48.2 °F 94% 29.65 in 5.6 mi West 15.0 mph - N/A   Scattered Clouds
2:50 PM 50.0 °F - 46.4 °F 87% 29.65 in 5.6 mi West 15.0 mph - N/A   Mostly Cloudy
3:20 PM 50.0 °F - 46.4 °F 87% 29.68 in 5.0 mi West 11.5 mph - N/A   Partly Cloudy
3:50 PM 50.0 °F - 46.4 °F 87% 29.68 in 5.6 mi West 11.5 mph - N/A   Scattered Clouds
4:20 PM 50.0 °F - 46.4 °F 87% 29.68 in 5.6 mi West 10.4 mph - N/A   Scattered Clouds
4:50 PM 48.2 °F - 46.4 °F 93% 29.68 in 5.6 mi West 11.5 mph - N/A   Scattered Clouds
5:20 PM 48.2 °F - 46.4 °F 93% 29.68 in 6.2 mi West 10.4 mph - N/A   Scattered Clouds
5:50 PM 48.2 °F - 46.4 °F 93% 29.68 in 6.2 mi West 9.2 mph - N/A   Partly Cloudy
6:20 PM 48.2 °F - 46.4 °F 93% 29.68 in 6.2 mi West 8.1 mph - N/A   Partly Cloudy
6:50 PM 48.2 °F - 46.4 °F 93% 29.71 in 6.2 mi WSW 6.9 mph - N/A   Partly Cloudy
7:20 PM 48.2 °F - 44.6 °F 87% 29.68 in 6.2 mi WSW 6.9 mph - N/A   Partly Cloudy
7:50 PM 46.4 °F 43.5 °F 44.6 °F 93% 29.68 in 6.2 mi SW 5.8 mph - N/A   Partly Cloudy
8:20 PM 46.4 °F 44.3 °F 44.6 °F 93% 29.71 in 6.2 mi SW 4.6 mph - N/A   Partly Cloudy
8:50 PM 46.4 °F 43.5 °F 44.6 °F 93% 29.68 in 6.2 mi SSW 5.8 mph - N/A   Scattered Clouds
9:20 PM 46.4 °F 44.3 °F 44.6 °F 93% 29.68 in 6.2 mi SW 4.6 mph - N/A   Partly Cloudy
9:50 PM 46.4 °F 44.3 °F 44.6 °F 93% 29.68 in 6.2 mi SSW 4.6 mph - N/A   Scattered Clouds
10:20 PM 46.4 °F 44.3 °F 44.6 °F 93% 29.71 in - SSW 4.6 mph - N/A   Clear
10:50 PM 46.4 °F 45.2 °F 44.6 °F 93% 29.68 in - South 3.5 mph - N/A   Clear
11:20 PM 46.4 °F 44.3 °F 44.6 °F 93% 29.68 in - South 4.6 mph - N/A   Clear
11:50 PM 46.4 °F 44.3 °F 44.6 °F 93% 29.68 in 6.2 mi SE 4.6 mph - N/A   Unknown